CZ-3C DEB, 40835

Orbit data source: Space-Track

CZ-3C DEB, 40835 is space debris in HEO originally from a launch on Sun, 31 Oct 2010 UTC launched from the Xichang Space Center, China (XSC). Debris objects in space refer to the collection of defunct objects orbiting the Earth. Examples of debris include non-operational satellites, rocket bodies, and fragments generated from explosions, collisions, or faulty payload assembly.

Loading next visibility...
Identifier
40835, 2010-057BC
Orbit
HEO
Country
Flag of CNCN / PRC
Related business
Manufacturer
CALT
Mission
Spacecraft
Bus & Motor
Unknown
Mass
Unknown
Launch date (UTC)
2010-10-31 (15 years ago)
Launch vehicle
Unknown
Launch site
Xichang Space Center, China (XSC)
Object type
Payload
Rocket body
Debris
Shape & HBR
Unknown shape, 0.2 m
Radar Cross Section
Small (<0.1 m²)

Expand to show TLE details & history
Last TLE update: 1 day ago

TLE from 1 day ago
0 CZ-3C DEB
1 40835U 10057BC  26105.31360007 -.00000074  00000-0 -30332-3 0  9994
2 40835  19.5495 136.4815 7211121  98.3852 341.7034  2.20288565 10970
Epoch: 2026-04-15T07:31Z
TLE epoch observation values (Epoch: 2026-04-15T07:31:35.046Z)
Latitude
0.00001°
Longitude
-179.70039°
Altitude
6,933.819 km
Speed
6.626 km/s
True Right ascension
09h 06m 41s
True Declination
0° 00' 00"
Sunlit
Object was in daylight at epoch
Visualization orbit readout
Latitude
Unknown
Longitude
Unknown
Altitude
Unknown
Speed
Unknown
Apparent Right ascension
Unknown
Apparent Declination
Unknown
Sunlit
N/A
Visualization observer readout
Local Sidereal Time
16:26:37
Azimuth
Unknown
Elevation
Unknown
Doppler factor
Unknown
Orbital elements
Apogee altitude
36,571.567 km
Perigee altitude
581.405 km
Semi-major axis
24,954.623 km
Eccentricity
0.72111
Inclination
19.5495°
RAAN
136.4815°
Arg. of periapsis
98.3852°
True anomaly
261.73273°
Mean anomaly
341.7034°
Eccentric anomaly
310.09886°
Mean motion
0.55058 °/min
Orbital period
653.86 mins
BSTAR
-0.00030332
Loading maneuver chart data...
Computing Atmospheric mass density...
Loading historical data...
Loading historical data...
Loading historical data...
Loading historical data...
Loading historical data...
Loading historical data...
Loading historical data...

Documentation

Showing up to 5 results
|